User: anonymous   Login
Location: Unspecified
(0.0000°N, 0.0000°E)
Time: 07:46:40
(UTC+00:00)
Language:

ESSA 9 - Orbit

View from above orbital plane
View from above orbital plane
View from above satellite
View from above satellite

Ground track
Ground track

The orbit data is extracted from the following two-line orbital elements,

1 03764U 69016A   18113.13831587 -.00000058  00000-0 -88146-4 0  9998
2 03764 101.7422 174.4868 0051344 108.6835 278.6604 12.49835211616344
Epoch (UTC): 23 April 2018 03:19:10
Eccentricity: 0.0051344
inclination: 101.7422°
perigee height: 1425 km
apogee height: 1505 km
right ascension of ascending node: 174.4868°
argument of perigee: 108.6835°
revolutions per day: 12.49835211
mean anomaly at epoch: 278.6604°
orbit number at epoch: 61634

The dashed part of the orbit path shows where the satellite is in the earth's shadow,  

DLR